Location: Bauerbach
(50.4985°N, 10.3912°E)
Time: 21:01:33
(UTC+00:00)

ARIANE 5 R/B - Pass Details

Date: 13 January 2026
Orbit: 746 x 793 km, 98.8° (Epoch: 18 February)

Event Time Altitude Azimuth Distance (km) Brightness Sun altitude
Rises 06:11:49 0° 15° (NNE) 3,281 5.7 -9.6°
Reaches altitude 10° 06:14:10 10° 16° (NNE) 2,342 5.0 -9.3°
Maximum altitude 06:19:21 87° 107° (ESE) 780 2.6 -8.5°
Drops below altitude 10° 06:24:25 10° 196° (SSW) 2,294 5.1 -7.8°
Sets 06:26:41 0° 196° (SSW) 3,209 5.8 -7.5°
